QPF
0.00 0.00 0.00 0.00 0.00 0.00 0.00 0.00 0.01 0.01 0.00 0.00 0.00 0.00 0.00 0.00 0.00 0.00 0.00 0.00 0.00 0.00 0.00 0.00 0.00 0.00 0.00 0.00 0.00 0.00 0.00 0.00 0.01 0.01 0.01 0.01 0.01 0.00 0.00 0.01 0.03 0.07 0.10 0.11
0.00 0.00 0.00 0.01 0.00 0.00 0.00 0.00 0.00 0.00 0.01 0.00 0.00 0.00 0.00 0.00 0.00 0.00 0.00 0.00 0.00 0.00 0.00 0.00 0.00 0.00 0.00 0.00 0.00 0.00 0.00 0.00 0.02 0.02 0.01 0.01 0.00 0.00 0.00 0.00 0.00 0.00 0.01 0.02
0.00 0.00 0.00 0.01 0.00 0.00 0.00 0.00 0.00 0.02 0.00 0.00 0.00 0.00 0.00 0.00 0.00 0.00 0.00 0.00 0.00 0.00 0.00 0.00 0.00 0.00 0.00 0.00 0.00 0.00 0.00 0.00 0.00 0.00 0.00 0.00 0.00 0.00 0.00 0.00 0.00 0.00 0.00 0.00
0.00 0.00 0.00 0.00 0.00 0.00 0.00 0.00 0.00 0.00 0.00 0.00 0.00 0.00 0.00 0.00 0.00 0.00 0.00 0.00 0.00 0.00 0.00 0.00 0.00 0.00 0.00 0.00 0.00 0.00 0.00 0.00 0.00 0.00 0.00 0.00 0.00 0.00 0.00 0.00 0.00 0.00 0.00 0.00
0.00 0.00 0.00 0.00 0.00 0.00 0.00 0.00 0.00 0.00 0.00 0.00 0.00 0.00 0.00 0.00 0.00 0.00 0.00 0.00 0.00 0.00 0.00 0.00 0.00 0.00 0.00 0.00 0.00 0.00 0.00 0.00 0.00 0.00 0.00 0.00 0.00 0.00 0.00 0.01 0.01 0.00 0.00 0.00
0.00 0.02 0.01 0.00 0.00 0.00 0.00 0.00 0.00 0.00 0.00 0.00 0.00 0.00 0.00 0.00 0.00 0.00 0.00 0.00 0.00 0.00 0.00 0.00 0.00 0.00 0.00 0.00 0.00 0.00 0.00 0.00 0.00 0.00 0.00 0.00 0.00 0.00 0.01 0.01 0.01 0.00 0.00 0.00
0.00 0.00 0.00 0.00 0.00 0.00 0.00 0.00 0.00 0.00 0.00 0.00 0.00 0.00 0.00 0.00 0.00 0.00 0.00 0.00 0.00 0.00 0.00 0.00 0.00 0.00 0.00 0.00 0.00 0.00 0.00 0.00 0.00 0.00 0.00 0.00 0.00 0.00 0.00 0.01 0.01 0.01 0.00 0.00
0.00 0.00 0.00 0.00 0.00 0.00 0.00 0.00 0.00 0.00 0.00 0.00 0.00 0.00 0.00 0.00 0.00 0.00 0.00 0.00 0.00 0.00 0.00 0.00 0.00 0.00 0.00 0.00 0.00 0.00 0.00 0.00 0.00 0.00 0.00 0.00 0.00 0.00 0.00 0.00 0.01 0.01 0.02 0.02
0.00 0.00 0.00 0.00 0.00 0.00 0.00 0.00 0.00 0.00 0.00 0.00 0.00 0.00 0.00 0.00 0.00 0.00 0.00 0.00 0.00 0.00 0.00 0.00 0.00 0.00 0.01 0.01 0.01 0.01 0.00 0.00 0.00 0.00 0.00 0.00 0.00 0.00 0.00 0.00 0.01 0.02 0.03 0.06
0.00 0.00 0.00 0.00 0.00 0.00 0.00 0.00 0.00 0.00 0.00 0.00 0.00 0.00 0.00 0.00 0.00 0.00 0.00 0.00 0.00 0.00 0.00 0.00 0.00 0.00 0.00 0.01 0.01 0.00 0.00 0.00 0.00 0.00 0.00 0.00 0.00 0.00 0.00 0.01 0.03 0.04 0.08 0.16
0.00 0.00 0.00 0.00 0.00 0.00 0.00 0.00 0.00 0.00 0.00 0.00 0.00 0.00 0.00 0.00 0.00 0.00 0.00 0.00 0.00 0.00 0.00 0.00 0.00 0.00 0.01 0.02 0.02 0.01 0.00 0.00 0.00 0.00 0.00 0.00 0.00 0.01 0.01 0.03 0.05 0.11 0.16 0.17
0.00 0.00 0.00 0.00 0.00 0.00 0.00 0.00 0.00 0.00 0.00 0.00 0.00 0.00 0.00 0.00 0.00 0.00 0.00 0.00 0.00 0.00 0.00 0.00 0.00 0.01 0.02 0.01 0.00 0.00 0.00 0.00 0.00 0.00 0.00 0.00 0.01 0.03 0.05 0.06 0.08 0.08 0.10 0.06
0.00 0.01 0.05 0.03 0.01 0.00 0.00 0.00 0.00 0.00 0.00 0.00 0.00 0.00 0.00 0.00 0.00 0.00 0.00 0.00 0.00 0.00 0.00 0.02 0.02 0.00 0.00 0.00 0.00 0.00 0.00 0.00 0.00 0.00 0.00 0.01 0.03 0.05 0.06 0.10 0.09 0.06 0.07 0.04
0.02 0.06 0.02 0.00 0.00 0.00 0.00 0.00 0.00 0.00 0.00 0.00 0.01 0.01 0.00 0.00 0.00 0.00 0.00 0.00 0.00 0.00 0.00 0.00 0.00 0.00 0.00 0.00 0.00 0.00 0.00 0.01 0.02 0.02 0.01 0.02 0.03 0.04 0.03 0.02 0.05 0.08 0.08 0.04
0.00 0.00 0.00 0.00 0.00 0.00 0.00 0.00 0.01 0.00 0.00 0.00 0.00 0.01 0.02 0.02 0.01 0.00 0.00 0.00 0.00 0.00 0.00 0.00 0.00 0.00 0.00 0.00 0.00 0.00 0.00 0.02 0.03 0.02 0.01 0.02 0.03 0.03 0.03 0.03 0.02 0.02 0.03 0.04
0.00 0.00 0.00 0.00 0.00 0.00 0.00 0.00 0.01 0.00 0.00 0.00 0.01 0.02 0.03 0.02 0.01 0.00 0.00 0.00 0.00 0.00 0.00 0.00 0.00 0.00 0.00 0.00 0.00 0.00 0.00 0.00 0.00 0.01 0.02 0.03 0.03 0.02 0.01 0.01 0.01 0.00 0.00 0.01
0.00 0.00 0.00 0.00 0.00 0.00 0.00 0.01 0.03 0.02 0.01 0.01 0.02 0.03 0.02 0.01 0.04 0.06 0.01 0.00 0.01 0.00 0.00 0.00 0.00 0.00 0.00 0.00 0.00 0.00 0.00 0.00 0.00 0.01 0.02 0.03 0.02 0.01 0.00 0.00 0.00 0.00 0.00 0.00
0.00 0.00 0.00 0.00 0.00 0.00 0.00 0.00 0.01 0.01 0.02 0.03 0.02 0.02 0.01 0.01 0.03 0.06 0.04 0.00 0.00 0.00 0.00 0.00 0.01 0.01 0.00 0.00 0.00 0.00 0.00 0.00 0.00 0.01 0.02 0.02 0.01 0.00 0.00 0.00 0.00 0.00 0.00 0.00
0.00 0.00 0.00 0.00 0.00 0.00 0.00 0.00 0.01 0.02 0.02 0.02 0.03 0.02 0.01 0.03 0.04 0.04 0.02 0.00 0.00 0.00 0.00 0.00 0.01 0.01 0.01 0.01 0.02 0.01 0.01 0.01 0.01 0.01 0.02 0.01 0.00 0.00 0.00 0.00 0.00 0.00 0.00 0.00
0.00 0.00 0.00 0.00 0.00 0.00 0.00 0.00 0.00 0.00 0.01 0.02 0.02 0.02 0.02 0.01 0.01 0.01 0.00 0.00 0.00 0.00 0.00 0.00 0.01 0.02 0.03 0.04 0.03 0.03 0.02 0.02 0.01 0.01 0.01 0.00 0.00 0.00 0.00 0.00 0.00 0.00 0.00 0.00
0.00 0.00 0.00 0.00 0.00 0.00 0.00 0.00 0.00 0.00 0.00 0.01 0.04 0.04 0.03 0.01 0.02 0.01 0.01 0.01 0.01 0.01 0.01 0.02 0.03 0.03 0.04 0.04 0.04 0.03 0.03 0.02 0.01 0.01 0.00 0.00 0.00 0.00 0.00 0.00 0.00 0.00 0.00 0.00
0.00 0.00 0.00 0.00 0.00 0.00 0.00 0.00 0.00 0.00 0.00 0.00 0.01 0.02 0.03 0.02 0.02 0.01 0.01 0.01 0.01 0.01 0.01 0.01 0.02 0.02 0.02 0.03 0.03 0.03 0.03 0.01 0.01 0.00 0.00 0.00 0.00 0.00 0.00 0.00 0.00 0.00 0.00 0.00
0.00 0.00 0.00 0.00 0.00 0.00 0.00 0.00 0.00 0.00 0.00 0.00 0.01 0.02 0.03 0.04 0.04 0.02 0.01 0.01 0.01 0.01 0.00 0.00 0.00 0.00 0.01 0.01 0.01 0.01 0.01 0.00 0.00 0.00 0.00 0.00 0.00 0.00 0.00 0.00 0.00 0.00 0.00 0.00
0.00 0.00 0.00 0.00 0.00 0.00 0.00 0.00 0.00 0.00 0.00 0.00 0.00 0.01 0.04 0.04 0.03 0.03 0.02 0.01 0.00 0.00 0.00 0.00 0.00 0.00 0.00 0.00 0.00 0.00 0.00 0.00 0.00 0.00 0.00 0.00 0.00 0.00 0.00 0.00 0.00 0.00 0.00 0.00
0.00 0.00 0.00 0.00 0.00 0.00 0.00 0.00 0.00 0.00 0.00 0.00 0.00 0.00 0.01 0.04 0.07 0.04 0.03 0.02 0.01 0.00 0.00 0.00 0.00 0.00 0.00 0.00 0.00 0.00 0.00 0.00 0.00 0.00 0.00 0.00 0.00 0.00 0.00 0.00 0.00 0.00 0.00 0.00
0.00 0.00 0.00 0.00 0.00 0.00 0.00 0.00 0.00 0.00 0.00 0.00 0.00 0.00 0.00 0.01 0.03 0.05 0.04 0.03 0.02 0.01 0.00 0.00 0.00 0.00 0.00 0.00 0.00 0.00 0.00 0.00 0.00 0.00 0.00 0.00 0.00 0.00 0.00 0.00 0.00 0.00 0.00 0.00
0.00 0.00 0.00 0.00 0.00 0.00 0.00 0.00 0.00 0.00 0.00 0.00 0.00 0.00 0.00 0.00 0.01 0.03 0.05 0.04 0.03 0.02 0.01 0.00 0.00 0.00 0.00 0.00 0.00 0.00 0.00 0.00 0.00 0.00 0.00 0.00 0.00 0.00 0.00 0.00 0.00 0.00 0.00 0.00
MSLP
1015.82 1015.67 1015.76 1015.52 1014.88 1014.94 1015.02 1014.75 1014.34 1013.41 1012.78 1012.23 1011.96 1011.40 1010.92 1010.25 1009.75 1009.17 1008.97 1008.60 1008.07 1008.14 1008.16 1007.82 1007.49 1007.15 1006.65 1006.27 1005.70 1005.23 1005.07 1004.88 1004.73 1004.84 1004.70 1004.93 1004.94 1004.79 1005.48 1005.90 1006.60 1006.74 1007.59 1008.71
1016.59 1016.53 1016.41 1015.67 1014.84 1014.61 1014.30 1013.87 1013.18 1012.68 1012.14 1012.04 1011.65 1011.47 1011.06 1010.30 1009.74 1009.22 1009.19 1008.98 1008.64 1008.44 1008.16 1007.72 1007.25 1006.87 1006.55 1006.32 1005.67 1005.08 1004.89 1005.04 1004.92 1004.57 1004.65 1004.76 1004.70 1004.87 1005.13 1005.91 1006.30 1006.92 1007.38 1007.79
1017.43 1017.15 1016.77 1015.71 1014.63 1014.14 1013.75 1013.20 1012.81 1012.06 1011.68 1011.53 1011.30 1011.18 1010.95 1010.26 1009.70 1009.28 1008.92 1008.67 1008.70 1008.54 1008.22 1007.70 1007.14 1006.68 1006.37 1005.74 1005.25 1005.01 1004.72 1004.59 1004.63 1004.62 1004.71 1004.45 1004.52 1004.90 1005.19 1005.69 1006.49 1006.70 1007.13 1007.35
1018.69 1018.39 1017.46 1015.32 1014.10 1013.75 1013.49 1012.99 1012.52 1012.18 1011.83 1011.67 1011.63 1011.23 1010.71 1010.06 1009.62 1009.16 1008.87 1008.40 1008.10 1007.98 1007.61 1007.13 1006.71 1006.31 1005.74 1005.15 1004.99 1004.80 1004.56 1004.42 1004.47 1004.63 1004.70 1004.30 1004.87 1005.32 1005.64 1006.09 1006.30 1007.00 1007.31 1007.63
1019.82 1019.11 1017.38 1015.63 1014.03 1013.69 1013.40 1012.97 1012.33 1012.21 1012.07 1011.81 1011.48 1011.13 1010.49 1009.82 1009.28 1008.92 1008.46 1007.94 1007.50 1007.09 1006.90 1006.62 1006.36 1005.71 1005.44 1005.14 1004.93 1004.78 1004.67 1004.81 1005.07 1005.12 1005.18 1005.21 1004.88 1005.19 1005.59 1005.92 1006.51 1006.57 1007.06 1007.65
1020.10 1019.40 1017.63 1015.11 1014.02 1013.42 1013.16 1012.66 1012.17 1012.35 1012.17 1011.88 1011.54 1011.31 1010.16 1009.34 1008.93 1008.36 1007.92 1007.52 1007.10 1006.59 1006.43 1006.29 1005.87 1005.49 1005.35 1005.02 1004.86 1004.61 1004.46 1004.63 1004.96 1005.40 1005.35 1005.05 1004.64 1005.10 1005.44 1005.70 1006.30 1006.51 1006.99 1007.94
1019.94 1019.00 1016.78 1014.41 1013.61 1013.36 1013.46 1013.05 1012.39 1012.16 1011.91 1011.59 1011.37 1010.48 1009.38 1008.77 1008.33 1007.85 1007.36 1006.75 1006.25 1006.04 1005.80 1005.42 1004.96 1004.75 1004.83 1004.59 1004.51 1004.15 1004.52 1004.76 1004.94 1005.13 1005.12 1004.89 1004.70 1004.83 1005.17 1005.51 1006.02 1006.68 1007.52 1008.19
1018.96 1018.40 1016.43 1014.08 1013.72 1013.81 1013.06 1012.53 1012.39 1011.91 1011.43 1011.12 1010.38 1009.53 1008.84 1008.16 1007.53 1006.98 1006.56 1006.06 1005.65 1005.47 1005.08 1004.53 1004.25 1004.37 1004.29 1004.16 1003.82 1004.49 1004.88 1005.10 1005.00 1004.88 1004.74 1004.62 1004.58 1004.81 1005.07 1005.46 1006.07 1006.75 1007.64 1008.55
1017.53 1015.99 1014.59 1014.03 1013.64 1013.07 1012.87 1012.48 1011.86 1011.54 1010.82 1010.34 1009.60 1008.83 1008.07 1007.39 1006.77 1006.26 1005.84 1005.34 1004.98 1004.76 1004.39 1004.01 1003.84 1003.99 1004.10 1003.75 1004.16 1004.57 1004.96 1005.18 1005.20 1004.84 1004.85 1004.81 1005.03 1005.00 1005.36 1005.48 1006.02 1006.75 1007.57 1008.38
1016.43 1014.62 1014.35 1013.66 1013.12 1012.72 1012.30 1011.91 1011.37 1010.86 1010.23 1009.68 1008.83 1008.05 1007.20 1006.62 1006.08 1005.54 1005.06 1004.70 1004.29 1004.02 1003.90 1003.64 1003.36 1003.26 1003.51 1003.89 1004.31 1004.67 1004.83 1005.02 1004.97 1004.85 1004.97 1004.93 1004.88 1005.07 1005.19 1005.37 1006.09 1006.59 1007.27 1008.18
1015.39 1014.49 1013.86 1013.31 1012.94 1012.49 1012.05 1011.62 1010.91 1010.28 1009.78 1009.12 1008.37 1007.57 1007.08 1006.32 1005.68 1005.03 1004.49 1004.08 1003.73 1003.41 1003.22 1002.99 1002.94 1003.14 1003.38 1003.77 1004.36 1004.87 1004.89 1004.90 1004.92 1004.87 1004.94 1005.07 1005.18 1005.23 1005.28 1005.60 1005.56 1006.14 1007.11 1007.77
1014.52 1014.12 1013.87 1013.18 1012.91 1012.32 1011.74 1011.12 1010.57 1009.94 1009.09 1008.61 1008.02 1007.01 1006.44 1005.46 1004.86 1004.31 1003.94 1003.47 1003.14 1002.81 1002.54 1002.61 1002.74 1002.84 1003.13 1003.31 1003.68 1004.48 1004.91 1004.90 1004.98 1004.92 1005.12 1005.30 1005.36 1005.65 1005.87 1005.98 1006.45 1006.90 1007.55 1007.84
1013.80 1013.54 1013.57 1013.10 1012.45 1012.07 1011.68 1011.05 1010.38 1009.66 1008.81 1007.93 1007.18 1006.57 1005.89 1004.95 1004.37 1003.77 1003.39 1002.87 1002.54 1002.28 1002.03 1002.05 1001.92 1001.96 1002.75 1003.19 1003.65 1004.34 1004.67 1004.77 1004.94 1005.07 1005.30 1005.49 1005.61 1005.98 1006.30 1006.83 1007.05 1007.38 1007.87 1008.42
1013.67 1013.57 1012.89 1012.58 1012.36 1011.91 1011.48 1010.82 1010.10 1009.26 1008.43 1007.57 1006.68 1005.88 1005.06 1004.26 1003.58 1003.23 1002.85 1002.36 1002.06 1001.84 1001.55 1001.56 1001.63 1001.96 1002.27 1002.94 1003.58 1004.17 1004.67 1004.78 1004.93 1005.22 1005.46 1005.70 1006.12 1006.37 1006.57 1007.07 1007.69 1008.39 1008.87 1009.28
1013.18 1013.29 1013.14 1012.66 1012.30 1011.80 1011.22 1010.48 1009.61 1008.68 1007.85 1006.98 1006.28 1005.36 1004.36 1003.40 1002.71 1002.48 1002.30 1002.06 1001.85 1001.64 1001.37 1001.35 1001.55 1001.97 1002.30 1002.89 1003.56 1004.22 1004.72 1004.85 1005.09 1005.34 1005.81 1006.11 1006.51 1006.83 1007.23 1007.77 1008.45 1009.06 1009.65 1010.23
1013.04 1013.04 1012.92 1012.73 1012.24 1011.75 1011.06 1010.24 1009.52 1008.44 1007.64 1006.71 1005.86 1004.98 1003.88 1003.01 1002.36 1002.18 1001.95 1001.84 1001.83 1001.66 1001.61 1001.69 1001.65 1001.97 1002.57 1003.03 1003.63 1004.24 1004.64 1004.96 1005.30 1005.77 1006.21 1006.70 1007.06 1007.43 1007.92 1008.34 1009.03 1009.66 1010.27 1010.74
1013.10 1012.88 1012.88 1012.79 1012.54 1011.91 1011.24 1010.45 1009.65 1008.63 1007.60 1006.77 1005.86 1004.94 1003.82 1002.93 1002.43 1002.01 1001.81 1001.74 1001.82 1001.84 1001.82 1002.00 1001.91 1002.25 1002.74 1003.19 1003.68 1004.18 1004.66 1005.18 1005.46 1006.06 1006.50 1007.03 1007.53 1007.95 1008.42 1008.88 1009.59 1010.26 1010.93 1011.22
1013.08 1013.19 1013.13 1012.99 1012.63 1012.06 1011.26 1010.50 1009.56 1008.65 1007.70 1006.78 1005.88 1004.95 1004.06 1003.26 1002.54 1002.04 1001.99 1002.04 1002.11 1002.14 1002.20 1002.19 1002.26 1002.46 1002.75 1003.17 1003.63 1004.09 1004.59 1005.12 1005.59 1006.14 1006.67 1007.34 1007.92 1008.49 1009.01 1009.66 1010.35 1010.96 1011.71 1012.36
1012.77 1012.94 1012.92 1012.75 1012.42 1012.07 1011.42 1010.50 1009.59 1008.79 1007.78 1006.83 1005.92 1005.02 1004.27 1003.56 1002.99 1002.55 1002.34 1002.37 1002.39 1002.38 1002.27 1002.26 1002.36 1002.50 1002.64 1002.91 1003.37 1004.03 1004.57 1005.08 1005.64 1006.27 1006.81 1007.54 1008.28 1008.87 1009.43 1010.08 1010.73 1011.29 1012.07 1012.79
1012.65 1012.65 1012.58 1012.39 1012.02 1011.70 1011.17 1010.38 1009.54 1008.84 1007.98 1007.01 1006.10 1005.16 1004.36 1003.76 1003.23 1002.87 1002.75 1002.62 1002.47 1002.34 1002.24 1002.30 1002.36 1002.48 1002.61 1002.87 1003.37 1003.96 1004.53 1005.04 1005.62 1006.30 1006.97 1007.67 1008.46 1009.18 1009.70 1010.28 1010.96 1011.64 1012.28 1012.89
1012.49 1012.41 1012.40 1012.24 1011.92 1011.48 1010.94 1010.27 1009.56 1008.83 1008.07 1007.28 1006.34 1005.48 1004.74 1004.11 1003.63 1003.30 1003.09 1002.91 1002.58 1002.50 1002.42 1002.40 1002.48 1002.56 1002.70 1002.99 1003.45 1004.02 1004.57 1005.08 1005.70 1006.32 1006.96 1007.67 1008.49 1009.15 1009.78 1010.41 1011.07 1011.75 1012.47 1013.10
1012.16 1012.43 1012.26 1012.05 1011.88 1011.39 1010.72 1010.17 1009.50 1008.78 1008.15 1007.42 1006.65 1005.78 1004.93 1004.20 1003.74 1003.49 1003.41 1003.23 1002.80 1002.71 1002.66 1002.63 1002.64 1002.65 1002.88 1003.19 1003.64 1004.15 1004.65 1005.18 1005.77 1006.35 1006.99 1007.60 1008.22 1008.93 1009.62 1010.26 1010.98 1011.63 1012.28 1012.94
1011.83 1011.84 1011.82 1011.79 1011.61 1011.08 1010.52 1010.06 1009.54 1008.82 1008.21 1007.60 1006.86 1006.10 1005.36 1004.60 1004.01 1003.67 1003.32 1003.00 1002.92 1002.89 1002.92 1002.87 1002.87 1002.99 1003.34 1003.53 1003.95 1004.34 1004.76 1005.25 1005.76 1006.26 1006.80 1007.39 1008.00 1008.67 1009.39 1010.05 1010.70 1011.36 1012.07 1012.80
1011.32 1011.33 1011.34 1011.05 1010.95 1010.75 1010.62 1009.73 1009.53 1008.94 1008.27 1007.72 1007.07 1006.39 1005.67 1004.63 1003.81 1003.48 1003.18 1002.98 1002.93 1003.00 1003.04 1003.09 1003.27 1003.48 1003.72 1003.96 1004.21 1004.55 1004.91 1005.34 1005.75 1006.18 1006.69 1007.21 1007.82 1008.47 1009.15 1009.78 1010.49 1011.12 1011.69 1012.34
1010.68 1010.73 1010.76 1010.70 1010.67 1010.35 1009.82 1009.61 1009.36 1008.87 1008.12 1007.63 1007.04 1006.38 1005.83 1005.16 1004.55 1003.52 1003.08 1002.83 1002.79 1002.92 1003.08 1003.32 1003.40 1003.54 1003.79 1004.10 1004.38 1004.69 1005.04 1005.46 1005.81 1006.19 1006.64 1007.13 1007.68 1008.28 1008.89 1009.51 1010.12 1010.80 1011.41 1011.98
1010.05 1010.14 1010.12 1010.03 1009.95 1009.77 1009.58 1009.54 1009.40 1008.92 1008.44 1007.91 1007.26 1006.55 1005.84 1005.15 1004.38 1003.59 1002.94 1002.56 1002.52 1002.57 1002.78 1003.09 1003.27 1003.43 1003.77 1004.14 1004.48 1004.76 1005.05 1005.48 1005.80 1006.14 1006.50 1006.98 1007.46 1008.05 1008.73 1009.36 1010.00 1010.60 1011.16 1011.74
1009.74 1009.76 1009.65 1009.59 1009.51 1009.52 1009.45 1009.62 1009.59 1009.23 1008.71 1008.23 1007.62 1006.73 1006.12 1005.26 1004.44 1003.64 1002.86 1002.43 1002.29 1002.31 1002.40 1002.58 1002.82 1003.09 1003.38 1003.74 1004.10 1004.33 1004.63 1004.97 1005.32 1005.79 1006.19 1006.68 1007.20 1007.80 1008.46 1009.14 1009.82 1010.42 1011.08 1011.77
Thickness
5468 5465 5455 5451 5459 5457 5442 5442 5423 5437 5442 5446 5437 5441 5443 5453 5455 5461 5464 5463 5469 5467 5464 5466 5469 5471 5474 5476 5479 5483 5487 5490 5494 5493 5497 5497 5502 5506 5502 5500 5497 5499 5493 5483
5427 5433 5432 5431 5436 5432 5432 5428 5427 5432 5428 5434 5431 5430 5430 5436 5440 5445 5441 5443 5446 5446 5449 5454 5459 5461 5463 5463 5467 5470 5470 5472 5477 5479 5481 5482 5485 5489 5493 5485 5486 5484 5482 5481
5404 5418 5408 5397 5425 5421 5418 5428 5425 5418 5419 5425 5417 5418 5418 5421 5426 5431 5433 5434 5430 5431 5433 5436 5441 5446 5448 5454 5458 5459 5461 5462 5463 5466 5469 5472 5473 5473 5474 5474 5469 5471 5470 5473
5362 5388 5336 5407 5425 5413 5404 5410 5412 5410 5411 5406 5400 5399 5402 5409 5412 5418 5420 5421 5422 5423 5424 5427 5430 5432 5436 5442 5447 5449 5450 5450 5449 5451 5453 5460 5458 5458 5457 5457 5458 5455 5455 5455
5326 5353 5375 5394 5405 5402 5390 5389 5399 5391 5388 5386 5390 5385 5391 5402 5400 5399 5402 5408 5411 5413 5412 5415 5419 5424 5425 5427 5430 5433 5436 5434 5429 5429 5432 5438 5444 5444 5444 5443 5443 5445 5443 5442
5319 5319 5318 5390 5395 5389 5379 5362 5387 5377 5375 5376 5373 5362 5381 5395 5390 5392 5393 5395 5399 5404 5401 5399 5406 5407 5409 5412 5413 5419 5420 5419 5416 5413 5415 5421 5429 5428 5430 5433 5430 5429 5428 5424
5308 5302 5347 5379 5382 5376 5354 5363 5367 5369 5365 5361 5355 5367 5376 5383 5381 5381 5385 5390 5394 5391 5389 5394 5398 5400 5398 5403 5401 5405 5402 5401 5400 5400 5403 5407 5411 5414 5416 5416 5415 5413 5411 5409
5308 5258 5307 5365 5365 5354 5355 5357 5355 5355 5356 5351 5355 5361 5365 5368 5372 5376 5376 5379 5380 5378 5382 5387 5390 5387 5390 5388 5390 5383 5383 5382 5385 5390 5394 5397 5401 5402 5403 5403 5402 5400 5396 5391
5330 5337 5357 5354 5348 5350 5343 5341 5345 5344 5349 5348 5349 5354 5359 5361 5364 5367 5367 5369 5370 5369 5373 5377 5377 5374 5373 5374 5369 5366 5367 5368 5371 5377 5380 5383 5386 5388 5387 5390 5390 5386 5383 5379
5332 5355 5347 5346 5350 5348 5347 5344 5344 5346 5347 5348 5350 5355 5358 5360 5362 5364 5367 5367 5369 5366 5366 5369 5370 5367 5362 5357 5354 5352 5356 5358 5361 5364 5366 5368 5371 5374 5377 5379 5374 5371 5369 5366
5337 5344 5344 5349 5345 5341 5341 5342 5343 5344 5343 5343 5345 5346 5346 5348 5351 5356 5359 5362 5361 5364 5365 5367 5364 5358 5351 5346 5343 5342 5347 5350 5353 5355 5357 5357 5358 5360 5362 5361 5363 5360 5355 5354
5330 5339 5335 5341 5338 5337 5334 5336 5336 5337 5340 5339 5338 5343 5344 5348 5349 5350 5351 5356 5357 5361 5364 5362 5357 5353 5345 5343 5343 5340 5340 5343 5345 5347 5346 5345 5346 5345 5344 5344 5343 5341 5340 5340
5341 5342 5336 5332 5334 5332 5327 5328 5329 5330 5334 5335 5337 5336 5336 5338 5340 5343 5345 5350 5353 5357 5362 5360 5361 5356 5348 5345 5343 5339 5338 5339 5339 5338 5337 5336 5338 5337 5335 5331 5329 5328 5326 5325
5338 5332 5336 5333 5326 5324 5321 5323 5326 5328 5331 5333 5335 5336 5335 5333 5335 5336 5338 5343 5345 5347 5352 5355 5353 5353 5350 5346 5342 5337 5335 5334 5333 5332 5331 5331 5330 5329 5326 5323 5318 5312 5314 5315
5339 5333 5326 5325 5321 5318 5320 5323 5325 5330 5332 5333 5333 5332 5330 5329 5331 5333 5336 5332 5337 5344 5348 5352 5352 5349 5346 5343 5339 5334 5330 5330 5328 5327 5325 5325 5324 5323 5320 5316 5312 5309 5308 5307
5334 5328 5323 5317 5316 5315 5317 5320 5322 5327 5329 5331 5331 5329 5329 5328 5330 5332 5333 5334 5338 5342 5343 5345 5348 5345 5342 5340 5336 5331 5328 5325 5323 5321 5319 5317 5317 5316 5315 5313 5307 5305 5303 5302
5318 5322 5319 5314 5312 5310 5311 5315 5317 5320 5323 5325 5326 5326 5328 5329 5330 5332 5333 5335 5336 5338 5340 5340 5343 5341 5339 5337 5333 5330 5326 5322 5320 5317 5315 5313 5311 5310 5308 5308 5304 5302 5297 5299
5320 5314 5309 5306 5304 5305 5307 5310 5313 5316 5318 5321 5322 5324 5326 5329 5333 5335 5333 5333 5332 5333 5334 5335 5337 5337 5336 5333 5330 5327 5324 5320 5317 5314 5311 5308 5305 5302 5300 5297 5295 5293 5288 5285
5316 5311 5307 5305 5302 5300 5301 5305 5310 5311 5314 5316 5319 5321 5324 5326 5328 5329 5330 5330 5330 5331 5332 5332 5332 5332 5332 5330 5327 5322 5319 5316 5312 5309 5306 5303 5299 5297 5294 5292 5288 5287 5284 5278
5311 5308 5306 5304 5304 5302 5302 5304 5307 5307 5309 5312 5315 5319 5321 5323 5325 5326 5325 5326 5326 5327 5326 5326 5326 5326 5326 5324 5321 5317 5314 5311 5308 5304 5301 5298 5295 5291 5288 5285 5282 5277 5274 5271
5305 5304 5301 5300 5299 5298 5296 5299 5303 5304 5304 5307 5311 5314 5316 5317 5319 5320 5321 5322 5321 5319 5321 5321 5320 5319 5319 5317 5314 5311 5308 5306 5303 5300 5298 5295 5291 5288 5285 5281 5278 5274 5269 5265
5299 5292 5289 5288 5287 5290 5292 5293 5296 5298 5299 5303 5306 5309 5312 5315 5314 5313 5310 5313 5315 5314 5314 5314 5314 5314 5312 5310 5308 5305 5304 5302 5299 5297 5294 5292 5289 5285 5281 5278 5273 5269 5265 5262
5285 5283 5283 5277 5277 5283 5282 5284 5285 5289 5290 5295 5299 5302 5305 5309 5310 5310 5312 5312 5311 5310 5310 5309 5308 5307 5304 5304 5303 5302 5300 5298 5296 5295 5292 5289 5286 5282 5278 5274 5270 5266 5261 5256
5279 5276 5270 5273 5266 5267 5270 5275 5278 5279 5285 5287 5290 5294 5297 5304 5309 5308 5308 5307 5306 5307 5306 5305 5303 5301 5299 5297 5296 5296 5294 5293 5290 5288 5286 5283 5281 5277 5274 5270 5265 5261 5258 5253
5271 5268 5264 5261 5265 5265 5264 5266 5269 5266 5274 5275 5277 5282 5287 5292 5295 5303 5303 5303 5302 5300 5300 5297 5297 5297 5295 5292 5291 5289 5288 5286 5285 5284 5282 5280 5277 5274 5270 5266 5262 5258 5253 5248
5263 5260 5257 5257 5253 5251 5250 5250 5249 5250 5254 5258 5263 5265 5272 5279 5287 5293 5297 5297 5297 5297 5296 5293 5292 5292 5290 5286 5285 5284 5284 5283 5281 5280 5278 5275 5273 5269 5264 5260 5255 5251 5247 5242
5248 5242 5238 5236 5233 5230 5234 5225 5222 5225 5229 5231 5239 5247 5252 5261 5269 5278 5287 5288 5289 5290 5290 5288 5287 5287 5286 5284 5283 5282 5280 5278 5276 5274 5272 5270 5267 5262 5258 5253 5249 5244 5238 5232